PDT,Max TemperatureF,Mean TemperatureF,Min TemperatureF,Max Dew PointF,MeanDew PointF,Min DewpointF,Max Humidity, Mean Humidity, Min Humidity, Max Sea Level PressureIn, Mean Sea Level PressureIn, Min Sea Level PressureIn, Max VisibilityMiles, Mean VisibilityMiles, Min VisibilityMiles, Max Wind SpeedMPH, Mean Wind SpeedMPH, Max Gust SpeedMPH,PrecipitationIn, CloudCover, Events, WindDirDegrees
2010-10-1,86,65,43,32,24,14,44,28,11,30.09,30.02,29.95,10,10,10,20,9,29,0.00,0,,182
2010-10-2,84,64,43,39,32,26,62,39,15,30.22,30.02,29.91,10,10,10,28,9,37,T,1,Thunderstorm,171
2010-10-3,76,60,44,48,40,34,71,48,25,30.02,29.93,29.87,10,10,10,24,11,32,0.02,3,Rain,177
2010-10-4,65,53,40,48,44,39,93,70,46,30.09,29.90,29.78,10,10,3,24,8,40,0.22,5,Rain-Thunderstorm,186
2010-10-5,59,48,37,44,41,36,100,78,55,30.08,29.99,29.83,10,7,0,18,4,24,0.30,5,Fog-Rain,231
2010-10-6,59,47,35,42,38,33,89,63,37,30.18,30.05,29.93,10,10,7,32,8,41,0.02,3,Rain-Thunderstorm,164
2010-10-7,52,45,37,39,36,34,92,74,56,30.15,30.06,30.00,10,10,10,21,7,24,0.01,7,Rain,204
2010-10-8,59,47,34,40,36,33,92,68,43,30.30,30.20,30.13,10,10,10,12,5,24,0.01,6,,188
2010-10-9,67,49,31,36,32,29,100,63,26,30.37,30.29,30.23,10,10,10,16,8,22,0.00,0,,145
2010-10-10,70,52,34,41,37,31,85,59,33,30.30,30.17,30.05,10,10,10,16,9,25,0.00,1,,152
2010-10-11,72,54,36,49,40,34,92,63,33,30.19,30.10,30.03,10,10,10,33,9,40,T,1,Rain,157
2010-10-12,66,48,30,35,27,21,92,56,19,30.41,30.32,30.19,10,10,10,16,8,20,0.00,0,,123
2010-10-13,71,48,24,23,16,5,81,45,8,30.46,30.36,30.26,10,10,10,14,7,15,0.00,0,,161
2010-10-14,75,52,28,25,19,14,58,35,12,30.40,30.25,30.14,10,10,10,18,9,24,0.00,0,,179
2010-10-15,74,54,33,28,23,18,69,41,13,30.23,30.12,30.03,10,10,10,16,8,20,0.00,0,,179
2010-10-16,72,52,32,35,27,22,64,42,19,30.20,30.06,29.94,10,10,10,24,9,32,T,3,,198
2010-10-17,57,48,39,46,39,30,100,75,50,30.15,30.03,29.95,10,9,2,17,5,23,0.21,6,Rain-Thunderstorm,200
2010-10-18,58,46,34,45,42,36,100,79,57,30.21,30.10,29.98,10,10,7,14,4,15,0.04,5,Rain,160
2010-10-19,65,48,31,39,32,29,100,64,27,30.21,30.10,30.00,10,10,10,12,5,15,0.00,0,,167
2010-10-20,70,49,27,35,30,25,85,54,23,30.17,30.04,29.94,10,10,10,14,6,18,0.00,1,,162
2010-10-21,64,50,36,46,40,34,92,66,39,30.02,29.91,29.82,10,10,10,16,6,18,T,5,Rain,173
2010-10-22,61,51,40,43,40,34,92,65,37,29.95,29.85,29.77,10,10,6,17,5,25,0.04,6,Rain-Thunderstorm,165
2010-10-23,52,46,40,43,40,38,89,76,63,30.03,29.92,29.84,10,9,2,21,7,25,0.17,6,Rain-Thunderstorm,197
2010-10-24,55,49,43,43,41,39,92,77,61,30.04,29.79,29.48,10,10,10,36,17,56,0.07,6,Rain,178
2010-10-25,49,37,25,43,30,23,100,71,41,29.99,29.86,29.49,10,8,0,30,8,38,0.20,6,Fog-Rain-Snow,329
2010-10-26,43,32,20,27,21,17,84,60,36,30.16,30.01,29.90,10,10,9,22,6,30,T,3,,277
2010-10-27,46,31,16,19,17,13,88,58,28,30.40,30.34,30.18,10,10,10,16,8,20,0.00,0,,180
2010-10-28,58,42,25,25,18,13,68,43,17,30.38,30.24,30.10,10,10,10,25,13,32,0.00,0,,161
2010-10-29,63,51,39,34,28,21,64,42,20,30.09,30.01,29.90,10,10,10,25,12,32,0.00,0,,190
2010-10-30,50,41,32,37,33,28,92,73,53,30.07,29.90,29.78,10,10,9,32,11,44,0.02,4,Rain,192
2010-10-31,55,41,27,34,30,26,92,65,38,30.34,30.20,30.06,10,10,10,12,6,16,0.00,2,,176